When you browse on this site, cookies collect data to enhance your experience and personalize the content and advertising you see.
Visit our Privacy Policy to learn more. By continuing to use the site, you agree to this use of cookies and data.
  • In United Kingdom
  • List of Countries
  • For 7 days
  • Water Temperature
  • Weather Map
  • Weather Widgets
  • user-avatar
    Login

    Hourly Weather Crowthorne

    Today, 5 April, Sunday

    Time Temperature Precipitation Wind Pressure Humidity
    00:00 +6°C° 0 mm 4 mps 755 mmHg 82%
    01:00 +6°C° 0 mm 4 mps 755 mmHg 83%
    02:00 +6°C° 0 mm 4 mps 755 mmHg 85%
    03:00 +6°C° 0 mm 4 mps 754 mmHg 86%
    04:00 +5°C° 0 mm 4 mps 754 mmHg 87%
    05:00 +5°C° 0 mm 4 mps 754 mmHg 89%
    06:00 +5°C° 0 mm 4 mps 754 mmHg 89%
    07:00 +7°C° 0 mm 5 mps 753 mmHg 84%
    08:00 +9°C° 0 mm 6 mps 753 mmHg 79%
    09:00 +11°C° 0 mm 6 mps 753 mmHg 74%
    10:00 +12°C° 0 mm 7 mps 752 mmHg 70%
    11:00 +14°C° 0 mm 7 mps 752 mmHg 66%
    12:00 +16°C° 0 mm 7 mps 752 mmHg 61%
    13:00 +16°C° 0 mm 7 mps 751 mmHg 62%
    14:00 +16°C° 0 mm 7 mps 751 mmHg 62%
    15:00 +16°C° 0 mm 7 mps 750 mmHg 62%
    16:00 +15°C° 0 mm 7 mps 750 mmHg 66%
    17:00 +14°C° 0 mm 6 mps 750 mmHg 70%
    18:00 +14°C° 0 mm 6 mps 750 mmHg 74%
    19:00 +13°C° 0 mm 6 mps 750 mmHg 76%
    20:00 +13°C° 0 mm 6 mps 750 mmHg 78%
    21:00 +11°C° 0 mm 6 mps 750 mmHg 80%
    22:00 +11°C° 0 mm 6 mps 750 mmHg 82%
    23:00 +11°C° 0 mm 6 mps 750 mmHg 83%

    Tomorrow, 6 April, Monday

    Time Temperature Precipitation Wind Pressure Humidity
    00:00 +10°C° 0 mm 5 mps 750 mmHg 84%
    01:00 +10°C° 0 mm 6 mps 750 mmHg 86%
    02:00 +10°C° 0 mm 6 mps 750 mmHg 87%
    03:00 +11°C° 0 mm 6 mps 751 mmHg 89%
    04:00 +10°C° 0 mm 5 mps 751 mmHg 90%
    05:00 +10°C° 0 mm 4 mps 752 mmHg 90%
    06:00 +9°C° 0 mm 3 mps 752 mmHg 91%
    07:00 +10°C° 0 mm 3 mps 753 mmHg 85%
    08:00 +12°C° 0 mm 3 mps 754 mmHg 78%
    09:00 +13°C° 0 mm 4 mps 755 mmHg 71%
    10:00 +13°C° 0 mm 4 mps 755 mmHg 66%
    11:00 +14°C° 0 mm 4 mps 756 mmHg 61%
    12:00 +15°C° 0 mm 4 mps 756 mmHg 55%
    13:00 +15°C° 0 mm 4 mps 757 mmHg 57%
    14:00 +14°C° 0 mm 4 mps 758 mmHg 58%
    15:00 +14°C° 0 mm 4 mps 758 mmHg 59%
    16:00 +13°C° 0 mm 3 mps 759 mmHg 64%
    17:00 +13°C° 0 mm 3 mps 759 mmHg 69%
    18:00 +13°C° 0 mm 2 mps 760 mmHg 74%
    19:00 +10°C° 0 mm 2 mps 761 mmHg 75%
    20:00 +9°C° 0 mm 2 mps 762 mmHg 76%
    21:00 +7°C° 0 mm 2 mps 762 mmHg 77%
    22:00 +8°C° 0 mm 1 mps 763 mmHg 78%
    23:00 +7°C° 0 mm 1 mps 763 mmHg 79%

    Day after tomorrow, 7 April, Tuesday

    Time Temperature Precipitation Wind Pressure Humidity
    00:00 +7°C° 0 mm 1 mps 763 mmHg 79%
    01:00 +7°C° 0 mm 1 mps 764 mmHg 81%
    02:00 +6°C° 0 mm 1 mps 764 mmHg 83%
    03:00 +6°C° 0 mm 1 mps 764 mmHg 84%
    04:00 +6°C° 0 mm 1 mps 764 mmHg 85%
    05:00 +6°C° 0 mm 1 mps 765 mmHg 85%
    06:00 +6°C° 0 mm 1 mps 765 mmHg 85%
    07:00 +8°C° 0 mm 1 mps 765 mmHg 79%
    08:00 +10°C° 0 mm 2 mps 765 mmHg 74%
    09:00 +13°C° 0 mm 2 mps 765 mmHg 68%
    10:00 +14°C° 0 mm 2 mps 765 mmHg 64%
    11:00 +14°C° 0 mm 3 mps 765 mmHg 60%
    12:00 +17°C° 0 mm 3 mps 765 mmHg 56%
    13:00 +17°C° 0 mm 3 mps 765 mmHg 55%
    14:00 +17°C° 0 mm 2 mps 764 mmHg 54%
    15:00 +17°C° 0 mm 2 mps 764 mmHg 53%
    16:00 +16°C° 0 mm 2 mps 764 mmHg 59%
    17:00 +15°C° 0 mm 2 mps 764 mmHg 66%
    18:00 +14°C° 0 mm 2 mps 764 mmHg 72%
    19:00 +13°C° 0 mm 1 mps 764 mmHg 76%
    20:00 +11°C° 0 mm 1 mps 764 mmHg 81%
    21:00 +10°C° 0 mm 1 mps 764 mmHg 85%
    22:00 +10°C° 0 mm 1 mps 764 mmHg 87%
    23:00 +9°C° 0 mm 1 mps 764 mmHg 88%

    8 April, Wednesday

    Time Temperature Precipitation Wind Pressure Humidity
    00:00 +9°C° 0 mm 1 mps 764 mmHg 90%
    01:00 +9°C° 0 mm 1 mps 764 mmHg 91%
    02:00 +9°C° 0 mm 1 mps 763 mmHg 92%
    03:00 +7°C° 0 mm 0 mps 763 mmHg 92%
    04:00 +9°C° 0 mm 1 mps 763 mmHg 93%
    05:00 +9°C° 0 mm 1 mps 763 mmHg 93%
    06:00 +9°C° 0 mm 1 mps 763 mmHg 94%
    07:00 +11°C° 0 mm 1 mps 763 mmHg 89%
    08:00 +13°C° 0 mm 1 mps 763 mmHg 84%
    09:00 +15°C° 0 mm 1 mps 763 mmHg 79%
    10:00 +16°C° 0 mm 1 mps 763 mmHg 74%
    11:00 +19°C° 0 mm 1 mps 763 mmHg 69%
    12:00 +20°C° 0 mm 1 mps 762 mmHg 64%
    13:00 +20°C° 0.2 mm 1 mps 762 mmHg 65%
    14:00 +20°C° 0.2 mm 1 mps 762 mmHg 67%
    15:00 +19°C° 0.2 mm 2 mps 761 mmHg 68%
    16:00 +19°C° 0.2 mm 1 mps 761 mmHg 72%
    17:00 +18°C° 0.2 mm 1 mps 761 mmHg 77%
    18:00 +16°C° 0.2 mm 1 mps 761 mmHg 81%
    19:00 +14°C° 0 mm 1 mps 761 mmHg 83%
    20:00 +13°C° 0 mm 1 mps 761 mmHg 85%
    21:00 +12°C° 0 mm 1 mps 761 mmHg 87%
    22:00 +10°C° 0 mm 0 mps 761 mmHg 87%
    23:00 +10°C° 0 mm 0 mps 761 mmHg 87%

    9 April, Thursday

    Time Temperature Precipitation Wind Pressure Humidity
    00:00 +9°C° 0 mm 0 mps 761 mmHg 87%
    01:00 +9°C° 0 mm 0 mps 761 mmHg 87%
    02:00 +9°C° 0 mm 0 mps 761 mmHg 87%
    03:00 +8°C° 0 mm 0 mps 760 mmHg 87%
    04:00 +9°C° 0 mm 0 mps 760 mmHg 87%
    05:00 +9°C° 0 mm 0 mps 760 mmHg 87%
    06:00 +9°C° 0 mm 0 mps 760 mmHg 87%
    07:00 +12°C° 0 mm 1 mps 760 mmHg 82%
    08:00 +14°C° 0 mm 1 mps 760 mmHg 76%
    09:00 +16°C° 0 mm 1 mps 760 mmHg 71%
    10:00 +17°C° 0 mm 2 mps 760 mmHg 68%
    11:00 +19°C° 0 mm 2 mps 760 mmHg 64%
    12:00 +20°C° 0 mm 2 mps 760 mmHg 61%
    13:00 +20°C° 0.1 mm 3 mps 760 mmHg 61%
    14:00 +20°C° 0.1 mm 3 mps 760 mmHg 60%
    15:00 +21°C° 0.1 mm 3 mps 759 mmHg 60%
    16:00 +19°C° 0 mm 3 mps 759 mmHg 65%
    17:00 +18°C° 0 mm 2 mps 759 mmHg 70%
    18:00 +17°C° 0 mm 2 mps 759 mmHg 76%
    19:00 +15°C° 0 mm 2 mps 759 mmHg 76%
    20:00 +14°C° 0 mm 2 mps 759 mmHg 77%
    21:00 +13°C° 0 mm 1 mps 760 mmHg 78%
    22:00 +12°C° 0 mm 2 mps 760 mmHg 78%
    23:00 +12°C° 0 mm 2 mps 760 mmHg 78%

    10 April, Friday

    Time Temperature Precipitation Wind Pressure Humidity
    00:00 +12°C° 0 mm 2 mps 760 mmHg 78%
    01:00 +10°C° 0 mm 2 mps 760 mmHg 80%
    02:00 +10°C° 0 mm 2 mps 759 mmHg 82%
    03:00 +10°C° 0 mm 2 mps 759 mmHg 84%
    04:00 +10°C° 0 mm 2 mps 759 mmHg 85%
    05:00 +10°C° 0 mm 2 mps 759 mmHg 86%
    06:00 +10°C° 0 mm 2 mps 759 mmHg 87%
    07:00 +13°C° 0 mm 2 mps 759 mmHg 82%
    08:00 +14°C° 0 mm 3 mps 759 mmHg 76%
    09:00 +17°C° 0 mm 3 mps 759 mmHg 70%
    10:00 +18°C° 0 mm 3 mps 759 mmHg 66%
    11:00 +19°C° 0 mm 4 mps 759 mmHg 62%
    12:00 +20°C° 0 mm 4 mps 758 mmHg 57%
    13:00 +20°C° 0 mm 4 mps 758 mmHg 58%
    14:00 +20°C° 0 mm 4 mps 758 mmHg 58%
    15:00 +20°C° 0 mm 4 mps 758 mmHg 59%
    16:00 +18°C° 0 mm 3 mps 757 mmHg 64%
    17:00 +17°C° 0 mm 2 mps 757 mmHg 69%
    18:00 +16°C° 0 mm 1 mps 757 mmHg 74%
    19:00 +16°C° 0 mm 1 mps 757 mmHg 75%
    20:00 +15°C° 0 mm 1 mps 758 mmHg 77%
    21:00 +14°C° 0 mm 1 mps 758 mmHg 78%
    22:00 +14°C° 0 mm 1 mps 758 mmHg 80%
    23:00 +13°C° 0 mm 1 mps 758 mmHg 82%
    Show more